Weather History for Burlington, WA

Change the Weather History Date:

Monday, December 23, 2013

  Actual Average Record
Temperature  
Mean Temperature 44 °F -  
Max Temperature 50 °F 44 °F 58 °F (1963)
Min Temperature 37 °F 34 °F 8 °F (1983)
Degree Days  
Heating Degree Days 22    
Moisture  
Dew Point 46 °F    
Average Humidity 97    
Maximum Humidity 100    
Minimum Humidity 82    
Precipitation  
Precipitation 0.26 in - - ()
Sea Level Pressure  
Sea Level Pressure 30.25 in    
Wind  
Wind Speed 7 mph (SSW)    
Max Wind Speed 16 mph    
Max Gust Speed 30 mph    
Visibility 8 miles    
Events      
Averages and records for this station are not official NWS values.
T = Trace of Precipitation, MM = Missing Value Source: NWS Daily Summary

Daily Weather History Graph

Daily Weather History Graph

Search for Another Location

Airport:

Trip Planner

Search our weather history database for the weather conditions in past years. The results will help you decide how hot, cold, wet, or windy it might be!

Date:

Astronomy

Dec. 23, 2013 Rise Set
Actual Time 7:59 AM PST 4:18 PM PST
Civil Twilight 7:22 AM PST 4:55 PM PST
Nautical Twilight 6:42 AM PST 5:35 PM PST
Astronomical Twilight 6:04 AM PST 6:13 PM PST
Moon 11:02 PM PST (12/23) 11:00 AM PST (12/23)
Length of Visible Light 9h 32m
Length of Day
8h 18m
Waning Gibbous, 67% of the Moon is Illuminated
Dec 23
Waning Gibbous
Dec 25
Last Quarter
Jan 1
New
Jan 7
First Quarter
Jan 15
Full

Hourly Weather History & Observations

Time (PST) Temp. Windchill Dew Point Humidity Pressure Visibility Wind Dir Wind Speed Gust Speed Precip Events Conditions
12:15 AM 44.6 °F 41.4 °F 44.6 °F 100% 30.24 in 6.0 mi NE 5.8 mph - 0.02 in   Overcast
12:35 AM 44.6 °F 43.1 °F 44.6 °F 100% 30.23 in 9.0 mi ENE 3.5 mph - 0.03 in   Overcast
12:55 AM 44.6 °F 40.2 °F 44.6 °F 100% 30.22 in 10.0 mi East 8.1 mph - 0.04 in   Overcast
1:15 AM 44.6 °F 41.4 °F 44.6 °F 100% 30.21 in 10.0 mi East 5.8 mph - 0.00 in   Overcast
1:35 AM 46.4 °F 43.5 °F 46.4 °F 100% 30.21 in 10.0 mi East 5.8 mph - 0.01 in   Overcast
1:55 AM 46.4 °F 42.9 °F 46.4 °F 100% 30.21 in 5.0 mi ESE 6.9 mph - 0.02 in   Overcast
2:15 AM 48.2 °F - 48.2 °F 100% 30.20 in 9.0 mi SE 10.4 mph - 0.00 in   Overcast
2:35 AM 48.2 °F - 48.2 °F 100% 30.21 in 10.0 mi SE 9.2 mph - 0.01 in   Overcast
2:55 AM 48.2 °F - 48.2 °F 100% 30.20 in 10.0 mi SE 8.1 mph - 0.01 in   Overcast
3:15 AM 48.2 °F - 48.2 °F 100% 30.19 in 2.5 mi SSE 10.4 mph 16.1 mph 0.00 in   Overcast
3:35 AM 48.2 °F - 48.2 °F 100% 30.19 in 3.0 mi SE 9.2 mph - 0.01 in   Overcast
3:55 AM 48.2 °F - 48.2 °F 100% 30.18 in 3.0 mi SE 10.4 mph 17.3 mph 0.01 in   Overcast
4:15 AM 48.2 °F - 48.2 °F 100% 30.16 in 5.0 mi SE 11.5 mph - 0.00 in   Overcast
4:35 AM 48.2 °F - 48.2 °F 100% 30.17 in 10.0 mi SSE 10.4 mph 16.1 mph 0.00 in   Overcast
4:55 AM 48.2 °F - 48.2 °F 100% 30.17 in 10.0 mi SSE 6.9 mph - 0.00 in   Overcast
5:15 AM 48.2 °F - 48.2 °F 100% 30.16 in 5.0 mi SSE 10.4 mph - 0.02 in   Overcast
5:35 AM 48.2 °F - 48.2 °F 100% 30.15 in 9.0 mi SSE 9.2 mph - 0.02 in   Overcast
5:55 AM 48.2 °F - 48.2 °F 100% 30.16 in 10.0 mi South 6.9 mph - 0.03 in   Overcast
6:15 AM 48.2 °F - 48.2 °F 100% 30.16 in 2.0 mi SSE 10.4 mph - 0.02 in   Overcast
6:35 AM 48.2 °F - 48.2 °F 100% 30.16 in 3.0 mi SSE 8.1 mph - 0.03 in   Overcast
6:55 AM 48.2 °F - 48.2 °F 100% 30.15 in 3.0 mi SSE 8.1 mph - 0.04 in   Overcast
7:15 AM 48.2 °F - 48.2 °F 100% 30.15 in 3.0 mi South 8.1 mph - 0.01 in   Overcast
7:35 AM 48.2 °F - 48.2 °F 100% 30.15 in 3.0 mi South 8.1 mph - 0.02 in   Overcast
7:55 AM 48.2 °F - 48.2 °F 100% 30.14 in 3.0 mi South 8.1 mph - 0.02 in   Overcast
8:15 AM 48.2 °F - 48.2 °F 100% 30.15 in 3.0 mi SSE 8.1 mph - 0.01 in   Overcast
8:35 AM 48.2 °F - 48.2 °F 100% 30.15 in 8.0 mi South 8.1 mph - 0.01 in   Overcast
8:55 AM 48.2 °F - 48.2 °F 100% 30.16 in 7.0 mi South 4.6 mph - 0.01 in   Overcast
9:15 AM 48.2 °F - 48.2 °F 100% 30.16 in 8.0 mi SSE 5.8 mph - 0.00 in   Overcast
9:35 AM 48.2 °F - 48.2 °F 100% 30.15 in 10.0 mi SSE 5.8 mph - 0.00 in   Overcast
9:55 AM 48.2 °F - 48.2 °F 100% 30.15 in 10.0 mi SSE 4.6 mph - 0.00 in   Overcast
10:15 AM 48.2 °F - 48.2 °F 100% 30.14 in 2.5 mi South 4.6 mph - 0.00 in   Overcast
10:35 AM 48.2 °F - 48.2 °F 100% 30.15 in 1.8 mi SSW 5.8 mph - 0.04 in   Overcast
10:55 AM 48.2 °F - 48.2 °F 100% 30.16 in 2.0 mi SW 9.2 mph - 0.07 in   Overcast
11:15 AM 48.2 °F - 48.2 °F 100% 30.16 in 10.0 mi SW 11.5 mph 19.6 mph 0.00 in   Mostly Cloudy
11:35 AM 48.2 °F - 48.2 °F 100% 30.15 in 10.0 mi SW 4.6 mph - 0.00 in   Mostly Cloudy
11:55 AM 50.0 °F - 46.4 °F 87% 30.16 in 5.0 mi West 12.7 mph 24.2 mph 0.01 in   Partly Cloudy
12:15 PM 48.2 °F - 46.4 °F 93% 30.16 in 10.0 mi West 10.4 mph 23.0 mph 0.00 in   Clear
12:35 PM 48.2 °F - 46.4 °F 93% 30.16 in 10.0 mi West 12.7 mph 29.9 mph 0.00 in   Clear
12:55 PM 48.2 °F - 46.4 °F 93% 30.16 in 10.0 mi WSW 16.1 mph 27.6 mph 0.00 in   Clear
1:15 PM 48.2 °F - 46.4 °F 93% 30.17 in 7.0 mi WSW 12.7 mph 25.3 mph 0.00 in   Clear
1:35 PM 48.2 °F - 46.4 °F 93% 30.18 in 9.0 mi West 13.8 mph 25.3 mph 0.00 in   Clear
1:55 PM 48.2 °F - 44.6 °F 87% 30.19 in 10.0 mi West 11.5 mph 21.9 mph 0.00 in   Scattered Clouds
2:15 PM 50.0 °F - 46.4 °F 87% 30.19 in 10.0 mi SW 9.2 mph 19.6 mph 0.00 in   Mostly Cloudy
2:35 PM 48.2 °F - 44.6 °F 87% 30.20 in 10.0 mi West 9.2 mph 19.6 mph 0.00 in   Partly Cloudy
2:55 PM 48.2 °F - 44.6 °F 87% 30.22 in 10.0 mi West 9.2 mph - 0.00 in   Partly Cloudy
3:15 PM 48.2 °F - 44.6 °F 87% 30.24 in 10.0 mi WSW 10.4 mph 17.3 mph 0.00 in   Mostly Cloudy
3:35 PM 48.2 °F - 44.6 °F 87% 30.25 in 10.0 mi WSW 6.9 mph - 0.00 in   Overcast
3:55 PM 48.2 °F - 44.6 °F 87% 30.26 in 10.0 mi SW 8.1 mph - 0.00 in   Overcast
4:15 PM 48.2 °F - 42.8 °F 82% 30.28 in 10.0 mi West 4.6 mph - 0.00 in   Overcast
4:35 PM 46.4 °F 44.3 °F 44.6 °F 93% 30.29 in 10.0 mi WSW 4.6 mph - 0.00 in   Overcast
4:55 PM 46.4 °F 45.2 °F 44.6 °F 93% 30.30 in 10.0 mi West 3.5 mph - 0.00 in   Scattered Clouds
5:15 PM 46.4 °F 44.3 °F 44.6 °F 93% 30.31 in 10.0 mi WSW 4.6 mph - 0.00 in   Clear
5:35 PM 46.4 °F 43.5 °F 44.6 °F 93% 30.32 in 10.0 mi WSW 5.8 mph - 0.00 in   Clear
5:55 PM 44.6 °F 40.7 °F 44.6 °F 100% 30.32 in 10.0 mi West 6.9 mph - 0.00 in   Clear
6:15 PM 46.4 °F 43.5 °F 44.6 °F 93% 30.33 in 10.0 mi WSW 5.8 mph - 0.00 in   Clear
6:35 PM 44.6 °F 41.4 °F 44.6 °F 100% 30.34 in 10.0 mi West 5.8 mph - 0.00 in   Clear
6:55 PM 44.6 °F 41.4 °F 44.6 °F 100% 30.37 in 10.0 mi West 5.8 mph - 0.00 in   Clear
7:15 PM 44.6 °F 41.4 °F 44.6 °F 100% 30.38 in 10.0 mi West 5.8 mph - 0.00 in   Clear
7:35 PM 44.6 °F 40.7 °F 44.6 °F 100% 30.40 in 10.0 mi West 6.9 mph - 0.00 in   Clear
7:55 PM 44.6 °F 40.7 °F 44.6 °F 100% 30.40 in 10.0 mi West 6.9 mph - 0.00 in   Partly Cloudy
8:15 PM 44.6 °F 40.7 °F 44.6 °F 100% 30.41 in 10.0 mi West 6.9 mph - 0.00 in   Clear
8:35 PM 44.6 °F - 44.6 °F 100% 30.42 in 10.0 mi Calm Calm - 0.00 in   Clear
8:55 PM 42.8 °F 41.1 °F 42.8 °F 100% 30.43 in 10.0 mi WSW 3.5 mph - 0.00 in   Clear
9:15 PM 42.8 °F 41.1 °F 42.8 °F 100% 30.44 in 10.0 mi SW 3.5 mph - 0.00 in   Partly Cloudy
9:35 PM 42.8 °F 40.1 °F 42.8 °F 100% 30.45 in 10.0 mi SW 4.6 mph - 0.00 in   Clear
9:55 PM 41.0 °F 39.0 °F 41.0 °F 100% 30.47 in 10.0 mi ENE 3.5 mph - 0.00 in   Partly Cloudy
10:15 PM 39.2 °F - 39.2 °F 100% 30.48 in 10.0 mi Calm Calm - 0.00 in   Scattered Clouds
10:35 PM 39.2 °F - 39.2 °F 100% 30.49 in 9.0 mi Calm Calm - 0.00 in   Partly Cloudy
10:55 PM 39.2 °F - 39.2 °F 100% 30.49 in 5.0 mi Calm Calm - 0.00 in   Clear
11:15 PM 37.4 °F - 37.4 °F 100% 30.51 in 10.0 mi Calm Calm - 0.00 in   Partly Cloudy
11:35 PM 39.2 °F - 39.2 °F 100% 30.51 in 5.0 mi Calm Calm - 0.00 in   Clear
11:55 PM 37.4 °F - 37.4 °F 100% 30.52 in 3.0 mi Calm Calm - 0.00 in   Clear